W4TBD-13 Weather Reports


Display with metric or nautical units.
time (UTC)temp
F
wind
direction
speed
MPH
gust
MPH
rain 1hr
in
rain 24hr
in
rain mn
in
humidity
%
barometer
mb
20240624073506 79 323 0.0 0.0 0.00 0.09 0.00 88 1004.9
20240624073004 79 323 0.0 0.0 0.00 0.09 0.00 88 1004.9
20240624072503 79 323 0.0 2.0 0.00 0.09 0.00 88 1004.9
20240624072005 79 323 0.0 2.0 0.00 0.09 0.00 88 1004.9
20240624071505 79 295 1.0 1.0 0.00 0.09 0.00 88 1005.4
20240624071006 79 295 1.0 6.0 0.00 0.09 0.00 88 1005.4
20240624070505 79 295 1.0 6.0 0.00 0.09 0.00 88 1005.4
20240624070004 79 212 3.0 6.0 0.00 0.09 0.00 88 1005.3
20240624065005 79 288 0.0 0.0 0.00 0.09 0.00 88 1005.2
20240624064504 79 316 0.0 0.0 0.00 0.09 0.00 87 1005.4
20240624064005 79 316 0.0 0.0 0.00 0.09 0.00 87 1005.4
20240624063005 79 316 0.0 0.0 0.00 0.09 0.00 87 1005.4
20240624062004 79 318 0.0 5.0 0.00 0.09 0.00 87 1005.4
20240624061005 79 210 1.0 7.0 0.00 0.09 0.00 86 1005.4
20240624060505 79 264 0.0 7.0 0.00 0.09 0.00 86 1005.6
20240624060004 79 185 2.0 7.0 0.00 0.09 0.00 86 1005.6
20240624055504 79 222 1.0 3.0 0.00 0.09 0.00 86 1005.6
20240624055004 80 325 1.0 3.0 0.00 0.09 0.00 85 1005.5
20240624054505 80 186 2.0 3.0 0.00 0.09 0.00 85 1005.9
20240624054005 80 255 1.0 1.0 0.00 0.09 0.00 84 1005.8
20240624053504 80 255 1.0 2.0 0.00 0.09 0.00 84 1005.8
20240624053004 80 254 1.0 2.0 0.00 0.09 0.00 84 1005.7
20240624052504 80 315 0.0 5.0 0.00 0.09 0.00 83 1005.7
20240624051504 81 165 1.0 5.0 0.00 0.09 0.00 82 1005.5
20240624051004 81 285 1.0 2.0 0.00 0.09 0.00 81 1005.6
20240624050505 81 245 2.0 2.0 0.00 0.09 0.00 80 1005.6
20240624050005 81 172 1.0 2.0 0.00 0.09 0.00 79 1005.7
20240624045504 81 273 1.0 2.0 0.00 0.09 0.00 79 1005.8
20240624044504 82 220 1.0 5.0 0.00 0.09 0.00 78 1005.7
20240624044005 82 249 1.0 6.0 0.00 0.09 0.00 77 1005.7
20240624043505 82 216 2.0 6.0 0.00 0.09 0.00 77 1005.7
20240624043004 82 215 3.0 6.0 0.00 0.09 0.00 76 1005.7
20240624042004 82 243 1.0 2.0 0.00 0.09 0.00 77 1005.8
20240624041005 82 245 2.0 3.0 0.00 0.09 0.00 76 1005.8
20240624035505 82 118 1.0 3.0 0.00 0.09 0.09 77 1005.8
20240624035006 83 196 1.0 3.0 0.00 0.09 0.09 77 1005.8
20240624034504 83 237 1.0 2.0 0.00 0.09 0.09 77 1005.8
20240624034005 82 280 0.0 0.0 0.00 0.09 0.09 79 1005.8
20240624033005 82 280 0.0 0.0 0.00 0.09 0.09 79 1005.8
20240624032004 82 280 0.0 0.0 0.00 0.09 0.09 79 1005.8
20240624031505 82 314 0.0 0.0 0.00 0.09 0.09 79 1005.8
20240624031005 82 241 0.0 0.0 0.00 0.09 0.09 80 1005.8
20240624030006 82 314 0.0 0.0 0.00 0.09 0.09 79 1006.0
20240624025504 82 311 0.0 0.0 0.00 0.09 0.09 79 1005.9
20240624025005 81 302 0.0 0.0 0.00 0.09 0.09 81 1005.9
20240624023504 81 317 0.0 0.0 0.00 0.09 0.09 80 1005.8
20240624023004 81 331 0.0 0.0 0.00 0.09 0.09 81 1005.9
20240624022505 81 311 0.0 0.0 0.00 0.09 0.09 80 1005.8
20240624021506 82 316 0.0 1.0 0.00 0.09 0.09 80 1005.8
20240624020504 82 318 0.0 1.0 0.00 0.09 0.09 79 1005.6
20240624020006 82 314 0.0 2.0 0.00 0.09 0.09 79 1005.7
20240624015505 82 58 0.0 2.0 0.00 0.09 0.09 79 1005.9
20240624014004 82 315 0.0 2.0 0.00 0.09 0.09 78 1005.6
20240624013505 82 138 0.0 2.0 0.00 0.09 0.09 78 1005.5
20240624012504 82 35 0.0 3.0 0.00 0.09 0.09 77 1005.5
20240624012005 82 236 2.0 3.0 0.00 0.09 0.09 77 1005.5
20240624011504 83 239 0.0 2.0 0.00 0.09 0.09 77 1005.3
20240624011005 83 93 1.0 2.0 0.00 0.09 0.09 77 1005.4
20240624010505 83 213 1.0 2.0 0.00 0.09 0.09 77 1005.4
20240624010005 83 213 0.0 1.0 0.00 0.09 0.09 77 1005.5
20240624005505 83 227 0.0 1.0 0.00 0.09 0.09 76 1005.5
20240624004004 83 211 1.0 2.0 0.00 0.09 0.09 75 1005.7
20240624003504 84 223 0.0 2.0 0.00 0.09 0.09 76 1005.6
20240624002504 84 176 0.0 2.0 0.00 0.09 0.09 75 1005.9
20240624002005 84 117 1.0 2.0 0.00 0.09 0.09 75 1005.7
20240624001504 84 266 1.0 3.0 0.00 0.09 0.09 74 1005.8
20240624001004 84 290 1.0 3.0 0.00 0.09 0.09 74 1005.8
20240624000004 84 210 0.0 1.0 0.00 0.09 0.09 74 1005.7
20240623235504 85 297 0.0 1.0 0.00 0.09 0.09 72 1005.6
20240623234506 85 297 0.0 3.0 0.00 0.09 0.09 72 1005.6
20240623234004 85 25 0.0 6.0 0.00 0.09 0.09 72 1005.8
20240623233504 85 285 2.0 6.0 0.00 0.09 0.09 71 1005.8
20240623233004 85 218 2.0 6.0 0.00 0.09 0.09 71 1005.9
20240623232504 85 319 1.0 2.0 0.00 0.09 0.09 72 1005.8
20240623232005 85 210 2.0 3.0 0.00 0.09 0.09 71 1005.9
20240623231504 86 308 0.0 3.0 0.00 0.09 0.09 72 1006.0
20240623231005 86 224 2.0 3.0 0.00 0.09 0.09 71 1005.8
20240623230505 86 219 1.0 3.0 0.00 0.09 0.09 73 1005.8
20240623230004 86 244 1.0 3.0 0.00 0.09 0.09 72 1005.6
20240623225504 86 213 2.0 3.0 0.00 0.09 0.09 71 1005.9
20240623225005 86 280 0.0 3.0 0.00 0.09 0.09 74 1006.0
20240623224505 86 233 1.0 3.0 0.00 0.09 0.09 73 1006.0
20240623224004 86 340 0.0 2.0 0.00 0.09 0.09 74 1006.0
20240623223505 86 291 1.0 2.0 0.00 0.09 0.09 76 1006.0
20240623223006 86 323 0.0 2.0 0.00 0.09 0.09 79 1005.9
20240623222504 86 323 1.0 5.0 0.00 0.09 0.09 79 1005.9
20240623222004 85 208 1.0 5.0 0.00 0.09 0.09 79 1006.2
20240623221504 85 273 2.0 5.0 0.00 0.09 0.09 78 1006.2
20240623221005 85 312 1.0 2.0 0.00 0.09 0.09 80 1006.2
20240623220005 83 212 1.0 2.0 0.00 0.09 0.09 80 1006.2
20240623215505 83 326 0.0 1.0 0.00 0.09 0.09 83 1006.2
20240623214505 83 307 0.0 2.0 0.00 0.09 0.09 85 1006.2
20240623214004 83 277 1.0 2.0 0.00 0.09 0.09 82 1006.5
20240623213504 83 256 1.0 2.0 0.00 0.09 0.09 82 1006.4
20240623213006 82 71 1.0 3.0 0.00 0.09 0.09 83 1006.2
20240623212005 82 279 1.0 3.0 0.01 0.09 0.09 84 1006.1
20240623211504 81 322 0.0 1.0 0.01 0.09 0.09 86 1006.4
20240623211005 81 254 0.0 2.0 0.01 0.09 0.09 85 1006.5
20240623210505 81 164 1.0 2.0 0.01 0.09 0.09 85 1006.5
20240623210004 81 292 1.0 3.0 0.01 0.09 0.09 87 1006.5
20240623205504 80 322 1.0 5.0 0.03 0.09 0.09 88 1006.4
20240623205004 79 195 1.0 5.0 0.07 0.09 0.09 90 1006.5
20240623204006 79 37 1.0 2.0 0.09 0.09 0.09 90 1006.6
20240623203504 79 358 1.0 3.0 0.09 0.09 0.09 89 1007.0
20240623203005 79 258 1.0 3.0 0.09 0.09 0.09 90 1007.1
20240623202504 79 202 0.0 1.0 0.09 0.09 0.09 93 1007.3
20240623202005 79 226 0.0 1.0 0.08 0.08 0.08 95 1007.1
20240623201505 78 329 0.0 1.0 0.08 0.08 0.08 96 1007.4
20240623201004 78 329 0.0 1.0 0.08 0.08 0.08 96 1007.4
20240623200505 78 329 0.0 3.0 0.08 0.08 0.08 96 1007.4
20240623200005 78 327 0.0 3.0 0.08 0.08 0.08 95 1007.6
20240623195505 78 342 2.0 3.0 0.06 0.06 0.06 93 1007.5
20240623194004 91 310 0.0 3.0 0.00 0.00 0.00 57 1007.2
20240623193505 92 292 1.0 3.0 0.00 0.00 0.00 56 1007.0
20240623192504 93 260 2.0 3.0 0.00 0.00 0.00 55 1007.0
20240623192005 93 292 1.0 5.0 0.00 0.00 0.00 54 1007.1
20240623191504 94 288 2.0 5.0 0.00 0.00 0.00 54 1006.8
20240623191004 93 279 2.0 3.0 0.00 0.00 0.00 54 1006.9
20240623190004 93 229 2.0 3.0 0.00 0.00 0.00 54 1006.9
20240623185505 93 209 2.0 6.0 0.00 0.00 0.00 52 1007.0
20240623185005 93 203 1.0 6.0 0.00 0.00 0.00 53 1007.1
20240623184505 93 219 2.0 5.0 0.00 0.00 0.00 53 1007.2
20240623184005 94 312 2.0 5.0 0.00 0.00 0.00 53 1007.3
20240623183504 94 305 3.0 3.0 0.00 0.00 0.00 54 1007.3
20240623183005 94 196 1.0 2.0 0.00 0.00 0.00 54 1007.6
20240623182505 94 208 1.0 2.0 0.00 0.00 0.00 54 1007.6
20240623182005 94 36 1.0 2.0 0.00 0.00 0.00 53 1007.5
20240623181506 95 259 1.0 2.0 0.00 0.00 0.00 51 1007.9
20240623181006 95 173 2.0 2.0 0.00 0.00 0.00 52 1007.8
20240623180505 95 309 2.0 6.0 0.00 0.00 0.00 53 1007.8
20240623175504 94 204 2.0 8.0 0.00 0.00 0.00 51 1008.0
20240623175004 94 219 3.0 8.0 0.00 0.00 0.00 53 1008.0
20240623174504 93 270 2.0 5.0 0.00 0.00 0.00 55 1008.0
20240623174004 94 322 2.0 5.0 0.00 0.00 0.00 56 1008.4
20240623172505 94 11 2.0 5.0 0.00 0.00 0.00 54 1008.4
20240623172005 93 312 1.0 5.0 0.00 0.00 0.00 57 1008.4
20240623171504 95 306 2.0 2.0 0.00 0.00 0.00 56 1008.6
20240623171005 94 68 1.0 5.0 0.00 0.00 0.00 56 1008.7
20240623170505 93 239 2.0 5.0 0.00 0.00 0.00 57 1008.7
20240623170004 93 246 1.0 5.0 0.00 0.00 0.00 58 1009.0
20240623165005 93 173 2.0 5.0 0.00 0.00 0.00 56 1009.0
20240623164506 93 328 2.0 3.0 0.00 0.00 0.00 58 1009.0
20240623163504 92 198 2.0 3.0 0.00 0.00 0.00 58 1009.3
20240623162504 92 357 2.0 3.0 0.00 0.00 0.00 60 1009.5
20240623162004 93 264 1.0 5.0 0.00 0.00 0.00 59 1009.5
20240623161004 93 312 2.0 3.0 0.00 0.00 0.00 59 1009.6
20240623160005 93 255 1.0 5.0 0.00 0.00 0.00 59 1009.5
20240623155504 92 305 1.0 5.0 0.00 0.00 0.00 58 1009.7
20240623155006 92 47 1.0 6.0 0.00 0.00 0.00 60 1009.5
20240623154505 93 264 1.0 6.0 0.00 0.00 0.00 60 1009.7
20240623154005 92 246 3.0 6.0 0.00 0.00 0.00 60 1009.8
20240623153504 91 315 1.0 6.0 0.00 0.00 0.00 61 1009.7
20240623153005 91 283 2.0 7.0 0.00 0.00 0.00 62 1009.7
20240623151504 91 312 1.0 2.0 0.00 0.00 0.00 63 1009.8
20240623151005 91 267 1.0 2.0 0.00 0.00 0.00 63 1009.9
20240623150504 91 262 2.0 3.0 0.00 0.00 0.00 63 1010.0
20240623150004 90 310 1.0 6.0 0.00 0.00 0.00 65 1010.0
20240623144504 89 316 1.0 5.0 0.00 0.00 0.00 66 1010.4
20240623144004 89 251 1.0 5.0 0.00 0.00 0.00 67 1010.5
20240623143505 88 309 2.0 5.0 0.00 0.00 0.00 67 1010.3
20240623143005 89 274 2.0 5.0 0.00 0.00 0.00 67 1010.4
20240623142505 89 180 1.0 3.0 0.00 0.00 0.00 68 1010.5
20240623142006 88 303 1.0 6.0 0.00 0.00 0.00 69 1010.5
20240623141504 88 266 1.0 6.0 0.00 0.00 0.00 68 1010.5
20240623141004 88 251 1.0 3.0 0.00 0.00 0.00 70 1010.7
20240623140503 87 240 1.0 5.0 0.00 0.00 0.00 70 1010.5
20240623140004 87 314 1.0 5.0 0.00 0.00 0.00 71 1010.6
20240623135504 86 324 2.0 5.0 0.00 0.00 0.00 71 1010.5
20240623135004 86 127 1.0 2.0 0.00 0.00 0.00 72 1010.6
20240623134504 86 288 1.0 2.0 0.00 0.00 0.00 72 1010.5
20240623134004 85 299 1.0 2.0 0.00 0.00 0.00 73 1010.7
20240623133004 85 308 1.0 5.0 0.00 0.00 0.00 74 1010.8
20240623132004 85 295 1.0 5.0 0.00 0.00 0.00 75 1011.0
20240623131004 84 209 2.0 5.0 0.00 0.00 0.00 76 1010.8
20240623130504 84 311 1.0 3.0 0.00 0.00 0.00 76 1011.1
20240623130004 84 280 2.0 3.0 0.00 0.00 0.00 77 1010.9
20240623125504 84 315 2.0 3.0 0.00 0.00 0.00 77 1011.0
20240623125005 84 291 1.0 2.0 0.00 0.00 0.00 78 1011.0
20240623124505 83 286 1.0 2.0 0.00 0.00 0.00 78 1011.0
20240623124004 83 277 1.0 2.0 0.00 0.00 0.00 78 1011.2
20240623123504 83 272 1.0 3.0 0.00 0.00 0.00 78 1011.2
20240623123005 82 288 1.0 3.0 0.00 0.00 0.00 81 1011.1
20240623122505 81 244 2.0 3.0 0.00 0.00 0.00 82 1010.9
20240623122006 81 287 2.0 2.0 0.00 0.00 0.00 82 1011.0
20240623121505 81 341 1.0 2.0 0.00 0.00 0.00 83 1011.2
20240623121005 80 20 1.0 3.0 0.00 0.00 0.00 83 1011.0
20240623120504 80 311 1.0 3.0 0.00 0.00 0.00 84 1011.4
20240623120004 80 227 2.0 3.0 0.00 0.00 0.00 84 1011.5
20240623115505 80 318 1.0 2.0 0.00 0.00 0.00 85 1011.3
20240623115004 79 340 1.0 2.0 0.00 0.00 0.00 85 1011.4
20240623114504 79 224 1.0 3.0 0.00 0.00 0.00 85 1011.5
20240623114004 79 261 1.0 3.0 0.00 0.00 0.00 86 1011.4
20240623113503 79 211 2.0 3.0 0.00 0.00 0.00 86 1011.5
20240623113004 78 315 1.0 2.0 0.00 0.00 0.00 86 1011.5
20240623112504 78 321 1.0 6.0 0.00 0.00 0.00 86 1011.3
20240623112005 78 179 1.0 6.0 0.00 0.00 0.00 87 1011.7
20240623111504 78 304 1.0 3.0 0.00 0.00 0.00 87 1011.6
20240623111006 78 329 2.0 3.0 0.00 0.00 0.00 87 1011.8
20240623110504 77 243 1.0 1.0 0.00 0.00 0.00 87 1011.7
20240623110005 77 309 1.0 1.0 0.00 0.00 0.00 87 1011.5
20240623105505 77 312 0.0 2.0 0.00 0.00 0.00 87 1011.7
20240623105006 77 269 0.0 3.0 0.00 0.00 0.00 87 1011.7
20240623104504 77 217 2.0 3.0 0.00 0.00 0.00 87 1011.8
20240623104005 77 288 1.0 2.0 0.00 0.00 0.00 87 1011.7
20240623103005 77 282 1.0 3.0 0.00 0.00 0.00 87 1011.8
20240623102005 77 269 1.0 2.0 0.00 0.00 0.00 87 1011.7
20240623101505 77 272 0.0 2.0 0.00 0.00 0.00 87 1011.8
20240623101005 77 178 1.0 2.0 0.00 0.00 0.00 87 1011.6
20240623100504 77 210 1.0 2.0 0.00 0.00 0.00 87 1012.0
20240623100004 77 302 1.0 2.0 0.00 0.00 0.00 86 1011.8
20240623095005 77 312 1.0 2.0 0.00 0.00 0.00 86 1011.7
20240623094505 77 293 1.0 2.0 0.00 0.00 0.00 86 1012.0
20240623094004 77 70 0.0 1.0 0.00 0.00 0.00 86 1011.8
20240623093504 77 319 0.0 1.0 0.00 0.00 0.00 86 1011.9
20240623093005 77 199 0.0 2.0 0.00 0.00 0.00 85 1011.7
20240623092504 77 303 0.0 2.0 0.00 0.00 0.00 85 1011.5
20240623092004 77 320 1.0 2.0 0.00 0.00 0.00 85 1011.7
20240623091504 77 312 0.0 3.0 0.00 0.00 0.00 85 1011.8
20240623091005 77 169 1.0 3.0 0.00 0.00 0.00 84 1011.7
20240623090004 77 328 0.0 1.0 0.00 0.00 0.00 84 1011.6
20240623085504 77 227 0.0 1.0 0.00 0.00 0.00 83 1012.0
20240623085004 77 313 0.0 1.0 0.00 0.00 0.00 83 1012.0
20240623084504 77 128 1.0 2.0 0.00 0.00 0.00 83 1011.8
20240623084005 78 317 0.0 2.0 0.00 0.00 0.00 82 1012.1
20240623083504 78 316 0.0 1.0 0.00 0.00 0.00 82 1012.2
20240623083005 78 312 0.0 2.0 0.00 0.00 0.00 81 1012.0
20240623082504 78 310 0.0 2.0 0.00 0.00 0.00 81 1011.9
20240623082005 78 341 2.0 2.0 0.00 0.00 0.00 80 1012.0
20240623081505 78 341 2.0 2.0 0.00 0.00 0.00 80 1012.0
20240623081004 78 341 2.0 7.0 0.00 0.00 0.00 80 1012.0
20240623080504 78 303 0.0 7.0 0.00 0.00 0.00 80 1012.0
20240623080004 78 262 1.0 2.0 0.00 0.00 0.00 80 1011.9
20240623075504 79 226 2.0 2.0 0.00 0.00 0.00 79 1012.0
20240623074505 79 314 2.0 2.0 0.00 0.00 0.00 79 1011.8